Regional Weather Roundup
Issued by NWS

Current Version | Previous Version | Text Only | Print | Product List | Glossary On
Versions: 1 2 3 4 5 6 7 8 9 10 11 12 13 14 15 16 17 18 19 20 21 22 23 24 25 26 27 28 29 30 31 32 33 34 35 36 37 38 39 40 41 42 43 44 45 46 47 48 49 50
000
ASUS45 KREV 081910
RWRNV
NEVADA REGIONAL WEATHER ROUNDUP
NATIONAL WEATHER SERVICE RENO NV
1100 AM PST MON FEB 08 2016

NOTE: "FAIR" INDICATES FEW OR NO CLOUDS BELOW 12,000 FEET WITH NO
SIGNIFICANT WEATHER AND/OR OBSTRUCTIONS TO VISIBILITY.

NVZ001-003-004-082000-
WESTERN NEVADA

CITY           SKY/WX    TMP DP  RH WIND       PRES   REMARKS
RENO           SUNNY     47  32  56 VRB3      30.59F
CARSON CITY    FAIR      43  32  65 CALM      30.62F
MINDEN         FAIR      39  32  75 CALM      30.62F
PYRAMID LAKE     N/A     46 N/A N/A SE8         N/A
FALLON         SUNNY     42  33  70 VRB3      30.62F
LOVELOCK       SUNNY     46  31  55 VRB3      30.62F
HAWTHORNE      SUNNY     43  32  65 W3        30.63F
$$

NVZ002-CAZ072-073-082000-
NORTHERN AND CENTRAL SIERRA

CITY           SKY/WX    TMP DP  RH WIND       PRES   REMARKS
S. LAKE TAHOE  SUNNY     48  28  46 CALM      30.52F
TRUCKEE        SUNNY     37  28  70 CALM      30.57S
SQUAW VLY 8000   N/A     39  25  56 NE6         N/A
BLUE CANYON    SUNNY     62  16  16 E10G17    30.44R
MAMMOTH LAKES  FAIR      41  25  52 SE5       30.61F
BRIDGEPORT     FAIR      44  24  45 VRB5      30.55F
$$

NVZ030-031-036-082000-
NORTHERN NEVADA

CITY           SKY/WX    TMP DP  RH WIND       PRES   REMARKS
ELKO           SUNNY     25  15  66 E5        30.71F
WINNEMUCCA     SUNNY     42  30  62 NE15      30.63F
WENDOVER       SUNNY     36  27  69 E3        30.72F
$$

NVZ035-037-082000-
CENTRAL NEVADA

CITY           SKY/WX    TMP DP  RH WIND       PRES   REMARKS
ELY            SUNNY     26  20  77 S6        30.67S
EUREKA           N/A      1  32 100 CALM      30.66S
$$

NVZ013-014-082000-
SOUTH CENTRAL NEVADA

CITY           SKY/WX    TMP DP  RH WIND       PRES   REMARKS
TONOPAH        SUNNY     37  28  70 SE9       30.59F
$$

NVZ017-020-022-082000-
SOUTHERN NEVADA

CITY           SKY/WX    TMP DP  RH WIND       PRES   REMARKS
LAS VEGAS      SUNNY     63  23  21 CALM      30.41F
N. LAS VEGAS   SUNNY     63  23  21 NE9       30.44F
NELLIS AFB     SUNNY     61  26  26 NE2       30.43F
HENDERSON      SUNNY     60  25  26 N7        30.46F
MERCURY        SUNNY     62  22  21 NE14      30.45F
$$



USA.gov is the U.S. government's official web portal to all federal, state and local government web resources and services.